Weather History for Tampa, FL

Change the Weather History Date:

Monday, March 4, 2013

  Actual Average Record
Temperature  
Mean Temperature 53 °F 66 °F  
Max Temperature 63 °F 75 °F 88 °F (1961)
Min Temperature 43 °F 57 °F 31 °F (1943)
Degree Days  
Heating Degree Days 12 3  
Month to date heating degree days 46 12  
Since 1 July heating degree days 303 483  
Cooling Degree Days 0 3  
Month to date cooling degree days 0 12  
Year to date cooling degree days 214 125  
Growing Degree Days 3 (Base 50)    
Moisture  
Dew Point 32 °F    
Average Humidity 50    
Maximum Humidity 65    
Minimum Humidity 34    
Precipitation  
Precipitation 0.00 in 0.09 in 1.59 in (2001)
Month to date precipitation T 0.37  
Year to date precipitation 1.56 5.41  
Sea Level Pressure  
Sea Level Pressure 30.20 in    
Wind  
Wind Speed 6 mph (NNW)    
Max Wind Speed 13 mph    
Max Gust Speed 17 mph    
Visibility 10 miles    
Events      
T = Trace of Precipitation, MM = Missing Value Source: NWS Daily Summary

Daily Weather History Graph

Daily Weather History Graph

Search for Another Location

Airport:

Trip Planner

Search our weather history database for the weather conditions in past years. The results will help you decide how hot, cold, wet, or windy it might be!

Date:

Astronomy

Mar. 04, 2013 Rise Set
Actual Time 6:51 AM EST 6:32 PM EST
Civil Twilight 6:27 AM EST 6:56 PM EST
Nautical Twilight 6:00 AM EST 7:23 PM EST
Astronomical Twilight 5:33 AM EST 7:50 PM EST
Moon 12:39 AM EST (3/4) 11:34 AM EST (3/4)
Length of Visible Light 12h 28m
Length of Day
11h 41m
Waning Gibbous, 52% of the Moon is Illuminated
Mar 4
Waning Gibbous
Mar 4
Last Quarter
Mar 11
New
Mar 19
First Quarter
Mar 27
Full

Hourly Weather History & Observations

Time (EST) Temp. Windchill Dew Point Humidity Pressure Visibility Wind Dir Wind Speed Gust Speed Precip Events Conditions
12:53 AM 48.0 °F - 35.1 °F 61% 30.19 in 10.0 mi NW 3.5 mph - N/A   Mostly Cloudy
1:53 AM 48.9 °F - 36.0 °F 61% 30.18 in 10.0 mi Calm Calm - N/A   Mostly Cloudy
2:53 AM 46.9 °F - 36.0 °F 66% 30.17 in 10.0 mi North 8.1 mph - N/A   Scattered Clouds
3:53 AM 44.1 °F 41.5 °F 34.0 °F 68% 30.17 in 10.0 mi NE 4.6 mph - N/A   Partly Cloudy
4:53 AM 43.0 °F 40.3 °F 30.9 °F 62% 30.18 in 10.0 mi NNE 4.6 mph - N/A   Clear
5:53 AM 43.0 °F 40.3 °F 30.0 °F 60% 30.20 in 10.0 mi NE 4.6 mph - N/A   Clear
6:53 AM 43.0 °F 41.3 °F 28.9 °F 58% 30.22 in 10.0 mi NE 3.5 mph - N/A   Clear
7:53 AM 45.0 °F 43.5 °F 27.0 °F 49% 30.25 in 10.0 mi NE 3.5 mph - N/A   Clear
8:53 AM 48.9 °F - 25.0 °F 39% 30.27 in 10.0 mi NNE 6.9 mph - N/A   Clear
9:53 AM 52.0 °F - 26.1 °F 37% 30.25 in 10.0 mi NE 10.4 mph - N/A   Clear
10:53 AM 55.9 °F - 28.0 °F 34% 30.25 in 10.0 mi Variable 4.6 mph - N/A   Clear
11:53 AM 55.9 °F - 30.0 °F 37% 30.23 in 10.0 mi West 6.9 mph - N/A   Clear
12:53 PM 59.0 °F - 32.0 °F 36% 30.20 in 10.0 mi SW 8.1 mph - N/A   Clear
1:53 PM 60.1 °F - 32.0 °F 35% 30.18 in 10.0 mi WSW 8.1 mph - N/A   Clear
2:53 PM 61.0 °F - 33.1 °F 35% 30.15 in 10.0 mi WSW 8.1 mph - N/A   Clear
3:53 PM 62.1 °F - 34.0 °F 35% 30.15 in 10.0 mi West 10.4 mph - N/A   Clear
4:53 PM 61.0 °F - 34.0 °F 36% 30.15 in 10.0 mi WSW 8.1 mph - N/A   Clear
5:53 PM 57.9 °F - 30.9 °F 36% 30.17 in 10.0 mi WNW 11.5 mph - N/A   Clear
6:53 PM 54.0 °F - 33.1 °F 45% 30.18 in 10.0 mi NW 5.8 mph - N/A   Clear
7:53 PM 53.1 °F - 36.0 °F 52% 30.18 in 10.0 mi NW 5.8 mph - N/A   Clear
8:53 PM 52.0 °F - 37.0 °F 57% 30.19 in 10.0 mi North 4.6 mph - N/A   Clear
9:53 PM 52.0 °F - 37.0 °F 57% 30.19 in 10.0 mi NNE 3.5 mph - N/A   Clear
10:53 PM 51.1 °F - 37.0 °F 59% 30.19 in 10.0 mi Calm Calm - N/A   Clear
11:53 PM 50.0 °F - 37.0 °F 61% 30.19 in 10.0 mi Calm Calm - N/A   Clear